Find Starlink 5383

NORAD ID: 54827 Int'l Des: 2022-177 Owner: SPXS Country: US Constellation: starlink operational
LEOCIRCULAR

实时位置

正在加载3D地球...

关于 Starlink 5383

正在加载描述...

即将过境

Passes for default location (London). Set your location on the main map for personalized predictions.

高度历史

Loading altitude history...

两行轨道根数

1 54827U 22177H 26125.59037597 -.00000229 00000-0 12182-5 0 9999
2 54827 43.0021 174.8864 0001769 289.1649 70.9011 15.27571565185622
Epoch: May 5, 2026 • Age: 23 hours

当前状态

高度 486.5 km
速度 7.62 km/s
星下点 -16.66°S, 51.75°W
发射日期 Dec 28, 2022
运行时间 3.3 years
类型 internet

技术详情

分类 Payload
质量 305.00 kg
干质量 290.00 kg
总质量 305.00 kg
长度 0.20 m
直径 2.80 m
跨度 9.00 m
形状 Box + pan
制造商 SPXS
平台类型 Starlink
阶段状态 In Orbit
所有者/国家 SPXS/US

Most Searched